Home   Weather   Constantine   Past weeks

Flag for Algeria Past Weather in Constantine, Algeria — Yesterday and Last 2 Weeks

57 °F

Passing clouds.

Feels Like: 55 °F
Forecast: 52 / 68 °F
Wind: 9 mph from Northwest

Location: Constantine Airport

Current Time: Oct 27, 2016 at 9:49:14 PM

Latest Report: Oct 27, 2016 at 9:30 PM

Visibility: N/A

Pressure: 30.33 "Hg (28.38 "Hg at 557m altitude)

Humidity: 72%

Dew Point: 48 °F

Location of ConstantineLocation

Past Weather in Constantine — Graph


Constantine Temperature Yesterday

Maximum temperature yesterday: 90 °F (at 1:00 PM)
Minimum temperature yesterday: 59 °F (at 7:00 AM)
Average temperature yesterday: 73 °F

High & Low Weather Summary for the Past Weeks

High93 °F (Oct 25, 2:30 PM)94% (Oct 14, 6:30 AM)30.33 "Hg (Oct 14, 6:30 AM)
Low48 °F (Oct 15, 6:30 AM)15% (Oct 25, 3:30 PM)29.65 "Hg (Oct 14, 1:00 AM)
Average69 °F53%30.09 "Hg
* Reported Oct 12 8:00 PM — Oct 27 8:30 PM, Constantine, Weather by CustomWeather, © 2016

Note: Actual official high and low records may vary slightly from our data, if they occured in-between our weather recording intervals... More about our weather records


Constantine Weather History for the Previous 24 Hours

Scroll right to see more
Time TempWeatherWind HumidityBarometerVisibility
8:30 PM
Thu, Oct 27
59 °FPassing clouds.8 mph68%30.30 "HgN/A
8:00 PM61 °FPassing clouds.9 mph63%30.30 "HgN/A
7:30 PM63 °FPassing clouds.10 mph68%30.30 "HgN/A
7:00 PM63 °FPassing clouds.10 mph68%30.30 "HgN/A
6:30 PM63 °FPassing clouds.10 mph64%30.30 "HgN/A
6:00 PM64 °FPassing clouds.12 mph56%30.27 "HgN/A
5:30 PM66 °FScattered clouds.12 mph52%30.27 "HgN/A
5:00 PM70 °FScattered clouds.13 mph50%30.27 "HgN/A
4:30 PM70 °FScattered clouds.13 mph50%30.24 "HgN/A
4:00 PM72 °FScattered clouds.17 mph47%30.24 "HgN/A
3:30 PM73 °FScattered clouds.16 mph44%30.24 "HgN/A
3:00 PM73 °FScattered clouds.15 mph44%30.24 "HgN/A
2:30 PM75 °FScattered clouds.15 mph41%30.24 "Hg5 mi
2:00 PM75 °FScattered clouds.14 mph41%30.24 "Hg5 mi
1:30 PM75 °FScattered clouds.10 mph47%30.24 "HgN/A
1:00 PM72 °FScattered clouds.7 mph57%30.27 "HgN/A
12:30 PM73 °FScattered clouds.12 mph57%30.27 "HgN/A
12:00 PM72 °FPartly sunny.12 mph61%30.30 "HgN/A
11:30 AM68 °FPartly sunny.3 mph69%30.30 "HgN/A
11:00 AM68 °FPartly sunny.7 mph69%30.30 "HgN/A
10:30 AM68 °FPartly sunny.10 mph69%30.30 "HgN/A
10:00 AM68 °FPartly sunny.8 mph69%30.33 "HgN/A
9:30 AM68 °FScattered clouds.8 mph73%30.30 "HgN/A
9:00 AM68 °FScattered clouds.8 mph64%30.30 "HgN/A
8:30 AM68 °FScattered clouds.7 mph60%30.30 "HgN/A
8:00 AM63 °FScattered clouds.3 mph52%30.27 "HgN/A
7:30 AM63 °FSunny.8 mph56%30.24 "Hg10 mi
7:00 AM59 °FSunny.No wind48%30.24 "Hg10 mi
6:30 AM59 °FClear.No wind48%30.24 "Hg10 mi
6:00 AM57 °FClear.No wind51%30.21 "Hg10 mi
5:30 AM57 °FClear.No wind51%30.21 "Hg10 mi
5:00 AM59 °FClear.No wind51%30.21 "Hg10 mi
4:30 AM61 °FClear.2 mph45%30.21 "Hg10 mi
4:00 AM61 °FClear.No wind45%30.21 "Hg10 mi
3:30 AM61 °FClear.No wind45%30.24 "Hg10 mi
3:00 AM61 °FClear.No wind45%30.24 "Hg10 mi
2:30 AM63 °FClear.2 mph42%30.24 "Hg10 mi
2:00 AM61 °FClear.2 mph45%30.24 "Hg10 mi
1:30 AM63 °FClear.2 mph42%30.24 "Hg10 mi
1:00 AM63 °FClear.No wind42%30.24 "Hg10 mi
12:30 AM63 °FClear.No wind45%30.24 "Hg10 mi
12:00 AM64 °FClear.2 mph43%30.27 "Hg10 mi
11:30 PM
Wed, Oct 26
63 °FPassing clouds.5 mph45%30.27 "HgN/A
11:00 PM64 °FClear.2 mph43%30.27 "Hg10 mi
10:30 PM68 °FClear.No wind38%30.27 "Hg10 mi
10:00 PM70 °FClear.No wind35%30.27 "Hg10 mi
9:30 PM70 °FClear.No wind38%30.27 "Hg10 mi
9:00 PM70 °FClear.No wind35%30.27 "Hg10 mi
Weather by CustomWeather, © 2016

See weather overviewHow to use our weather pages